Location: Alpine Heights
(32.8181°N, 116.7809°W)
Time: 00:26:26
(UTC+00:00)

Cosmos 1842 - Pass Details

Date: 14 April 2021
Orbit: 520 x 536 km, 82.5° (Epoch: 14 May)

Event Time Altitude Azimuth Distance (km) Brightness Sun altitude
Exits shadow 12:26:12 - 195° (SSW) 2,535 6.4 -11.4°
Reaches altitude 10° 12:28:05 10° 199° (SSW) 1,768 5.5 -11.0°
Maximum altitude 12:31:53 56° 277° (W) 633 3.3 -10.2°
Drops below altitude 10° 12:35:43 10° 357° (N) 1,770 6.1 -9.5°
Sets 12:37:53 0° 2° (N) 2,661 7.1 -9.0°
